Regional Weather Roundup
Issued by NWS Bismarck, ND

Home | Current Version | Previous Version | Text Only | Print | Product List | Glossary On
Versions: 1 2 3 4 5 6 7 8 9 10 11 12 13 14 15 16 17 18 19 20 21 22 23 24 25 26 27 28 29 30 31 32 33 34 35 36 37 38 39 40 41 42 43 44 45 46 47 48 49 50
000
ASUS43 KBIS 280001
RWRBIS

NWR BROADCAST TEXT
NATIONAL WEATHER SERVICE BISMARCK ND
700 PM CDT MON APR 27 2015

NOTE: "FAIR" INDICATES FEW OR NO CLOUDS BELOW 12,000 FEET WITH NO
SIGNIFICANT WEATHER AND/OR OBSTRUCTIONS TO VISIBILITY.


CITY           SKY/WX    TMP DP  RH WIND       PRES   REMARKS
WILLISTON      MOSUNNY   58  38  47 SW6       30.27S
MINOT          MOSUNNY   53  39  59 W5        30.26S
MINOT AFB      MOSUNNY   54  45  69 VRB1      30.25S
BISMARCK       CLOUDY    50  40  68 N10       30.30S
DICKINSON      CLOUDY    48  38  68 NW7       30.29S
GARRISON         N/A     50  42  74 NW9       30.29S
HETTINGER ARPT CLOUDY    47  37  68 NW12      30.32R
JAMESTOWN      CLOUDY    54  41  61 NW20      30.22R
CARRINGTON     CLOUDY    46  46 100 NW13      30.28R
HARVEY           N/A    N/A N/A N/A MISG        N/A
HAZEN          CLOUDY    48  39  71 NW8       30.31R
OAKES            N/A     64  41  42 NW17      30.16R
STANLEY        MOCLDY    54  45  71 SW8       30.28S
WATFORD CITY   FAIR      54  39  58 SW5       30.27S
$$

CITY           SKY/WX    TMP DP  RH WIND       PRES   REMARKS
GRAND FORKS    PTSUNNY   56  41  57 N18       30.20R
GRAND FORKS AF PTSUNNY   56  41  56 N17       30.21R
DEVILS LAKE    CLOUDY    48  43  81 N9        30.25S
FARGO          PTSUNNY   71  25  17 CALM      30.12S
CANDO          CLOUDY    50  41  71 NW7       30.26S
CAVALIER       LGT RAIN  50  45  81 N15       30.24S
GRAFTON        MOCLDY    52  43  71 N15       30.24R
GWINNER        PTCLDY    68  41  37 N20       30.16R
LANGDON        CLOUDY    48  43  81 N10       30.25S
WALHALLA       LGT RAIN  48  48 100 N9        30.26R
$$

CITY           SKY/WX    TMP DP  RH WIND       PRES   REMARKS
ABERDEEN       PTSUNNY   68  41  37 NW22      30.15S
MOBRIDGE       LGT RAIN  52  45  77 N15       30.25R
BUFFALO          N/A     47  35  63 NW9       30.26R
RAPID CITY     LGT RAIN  47  41  80 N12       30.30S
GLASGOW        SUNNY     58  34  40 S6        30.26F
SIDNEY         MOSUNNY   55  37  50 SW8       30.30S
WOLF POINT     SUNNY     60  35  39 SW7       30.28S
GLENDIVE       SUNNY     52  36  54 N3        30.32S
MILES CITY     CLOUDY    53  35  50 E3        30.31S
BAKER          CLOUDY    47  37  68 N8        30.33S
$$

CITY           SKY/WX    TMP DP  RH WIND       PRES   REMARKS
BILLINGS       MOSUNNY   59  27  29 CALM      30.26S
GREAT FALLS    SUNNY     62  27  26 VRB7      30.19F
$$



USA.gov is the U.S. government's official web portal to all federal, state and local government web resources and services.